{"data":{"norad_id":59488,"epoch":"2026-05-24T18:28:29.148384Z","epoch_age_seconds":109023,"freshness":"FRESH","line1":"1 59488U 24071E   26144.76978181 -.00000041  00000+0  80472-5 0  9993","line2":"2 59488  43.0017 277.6533 0001153 279.9505  80.1216 15.27574232119750","mean_motion":15.27574232,"eccentricity":0.0001153,"inclination_deg":43.0017,"raan_deg":277.6533,"arg_perigee_deg":279.9505,"mean_anomaly_deg":80.1216,"bstar":8.0472e-6,"rev_number":11975,"period_min":94.267104657471,"perigee_km":482.27527081275,"apogee_km":483.85746430931,"semimajor_km":6861.203367561,"source":"CELESTRAK","updated_at":"2026-05-25T13:38:18.953279Z"}}